Skip Page Navigation
NASA JPL Caltech
NASA Logo - Jet Propulsion Laboratory + View the NASA Portal
+ Center for Near-Earth Object Studies
JPL Home Earth Solar System Stars & Galaxies Technology
JPL Solar System Dynamics
BODIES ORBITS EPHEMERIDES TOOLS PHYSICAL DATA DISCOVERY FAQ SITE MAP
IMPORTANT: The SSD Announcement email list is now available. Major changes are coming in the near future, including possible hostname and/or URL changes. To be notified of such changes, subscribe to this email list.

Please visit this page for more details.


JPL Small-Body Database Browser
Search: [ help ]  
154546 (2003 GL36)
Classification: Main-belt Asteroid          SPK-ID: 2154546
Ephemeris | Orbit Diagram | Orbital Elements | Mission Design | Physical Parameters | Discovery Circumstances | Close-Approach Data ]

[ show orbit diagram ]
Orbital Elements at Epoch 2459000.5 (2020-May-31.0) TDB
Reference: JPL 12 (heliocentric ecliptic J2000)
 Element Value Uncertainty (1-sigma)   Units 
e .1162859174122101 6.7211e-08  
a 2.595283578274737 2.6766e-08 au
q 2.293488646430216 1.6854e-07 au
i 2.388420291958258 8.6052e-06 deg
node 352.2650389655292 0.00015946 deg
peri 286.3642974838151 0.00016476 deg
M 331.0402544843898 4.9842e-05 deg
tp 2459123.347944823512
(2020-Sep-30.84794482)
0.00021257 TDB
period 1527.128755762909
4.18
2.3625e-05
6.468e-08
d
yr
n .2357365079018203 3.6468e-09 deg/d
Q 2.897078510119258 2.9878e-08 au
  Orbit Determination Parameters
   # obs. used (total)      195  
   data-arc span      8161 days (22.34 yr)  
   first obs. used      1996-10-05  
   last obs. used      2019-02-08  
   planetary ephem.      DE431  
   SB-pert. ephem.      SB431-N16  
   condition code      0  
   norm. resid. RMS      .63315  
   source      ORB  
   producer      Otto Matic  
   solution date      2019-Jul-14 03:33:49  

Additional Information
 Earth MOID = 1.27849 au 
 Jupiter MOID = 2.21703 au 
 T_jup = 3.407 
[ show covariance matrix ]

Ephemeris | Orbit Diagram | Orbital Elements | Mission Design | Physical Parameters | Discovery Circumstances | Close-Approach Data ]

Physical Parameter Table
Parameter Symbol Value Units Sigma Reference Notes
absolute magnitude H 16.7   n/a MPO426967  

154546 (2003 GL36)          Discovered 2003-Apr-05 by Spacewatch at Kitt Peak
Reference: 20070402/Numbers.arcLast Updated: 2007-04-04

[ show close-approach data ]
Alternate Designations
 2003 GL36 = 2004 RP139 
Ephemeris | Orbit Diagram | Orbital Elements | Mission Design | Physical Parameters | Discovery Circumstances | Close-Approach Data ]
ABOUT SSD CREDITS/AWARDS PRIVACY/COPYRIGHT GLOSSARY LINKS
FirstGov 2020-Mar-28 18:52 UT
(server date/time)  
NASA Home Page
Site Manager:   Ryan S. Park
Webmaster  Alan B. Chamberlin